COSMOS 2433 (GLONASS)

Satellite information

Favourite Embed

Satellite Type and Status

PAYLOADIN ORBIT

Key statistics

Satellite COSMOS 2433 (GLONASS) at a glance.

Uptime

6466

Days in orbit

Revolutions

≈ 2.1

Per day

Orbit

MEO

Medium Earth Orbit

Inclination

65.8

Latest

Satellite identification and parameters

Extended collection of information and parameters for COSMOS 2433 (GLONASS).

Object identification

Identified? True

Debris? False

Object name: COSMOS 2433 (GLONASS)

International designator: 2007-052A

Object number (NORAD): 32275

Object ID (CCSDS): 32275

Country: COMMONWEALTH OF INDEPENDENT STATES (CIS)

Current information (Y/N): Y

RCS size: LARGE

Orbital parameters

Period: 675.726 minutes

Inclination: 65.7661 deg

SMA: 25507.847 km

Apoapsis: 19137.198 km

Periapsis: 19122.225 km

RAAN: 327.4839 deg

Eccentricy: 0.0002935

Argument of periapsis: 203.7953 deg

Mean anomaly: 156.1866 deg

Mean motion: 2.13104226 rev/day

Mean motion (dot): -0.00000069 rev/day2

B* drag term: 0.0 1/REarth

Two-line elements (TLE)

Creation date: July 9, 2025, 2:22 a.m.

Reference frame: TEME

Reference center: EARTH

Epoch: July 8, 2025, 10:02 a.m. UTC

TLE line 0: 0 COSMOS 2433 (GLONASS)

TLE line 1: 1 32275U 07052A 25189.41870965 -.00000069 00000-0 00000-0 0 9994

TLE line 2: 2 32275 65.7661 327.4839 0002935 203.7953 156.1866 2.13104226137731

Live tracking on map

Real-time ground track for satellite COSMOS 2433 (GLONASS).

In-orbit conjunctions

There are no conjunctions computed for COSMOS 2433 (GLONASS), at the moment. Check back to stay up to date, as we update our databases every day.

Go to all conjunctions

Associated space launch

GLONASS navigation satellites

COSMOS 2433 (GLONASS) was lifted into orbit during the mission ‘Proton | Uragan-M 9 to 11’, on board a Proton space rocket.

The launch took place on Oct. 26, 2007, 7:35 a.m. from 81/24 (81P).

For more information about the launch, click the button.

Launch to space Proton | Uragan-M 9 to 11
Proton | Uragan-M 9 to 11

Agency: N/A

Status: Launch Successful

Launch date: Oct. 26, 2007, 7:35 a.m. UTC

Rocket: Proton

Launch pad: 81/24 (81P)

Location: Baikonur Cosmodrome, Republic of Kazakhstan

...

Latest news about this satellite

There are no fresh news available about this satellite. Check back as we update our databases every day.


Newsletter sign-up

Weekly statistics, charts and insights to help you stay on top of the space industry.